This is the latest recevied weather packets stored in our database for station/object AA8FM-13. If no packets are shown the sender has not sent any weather packets the latest 10 day(s).
| Time | Temp. | Humidity | Pressure | Rain* | Wind** | Luminosity | Snow |
|---|---|---|---|---|---|---|---|
| 1778023583 | 21.67° C | 48% | 1006.2 hPa | 0 mm | - | 20 W/m² | - |
| 1778023281 | 21.67° C | 48% | 1006.3 hPa | 0 mm | - | 26 W/m² | - |
| 1778022977 | 21.67° C | 48% | 1006.2 hPa | 0 mm | - | 31 W/m² | - |
| 1778022676 | 21.67° C | 48% | 1006.2 hPa | 0 mm | - | 31 W/m² | - |
| 1778022374 | 21.67° C | 47% | 1005.9 hPa | 0 mm | - | 41 W/m² | - |
| 1778022070 | 22.22° C | 47% | 1006 hPa | 0 mm | - | 42 W/m² | - |
| 1778021766 | 22.78° C | 48% | 1006.1 hPa | 0 mm | - | 39 W/m² | - |
| 1778021462 | 23.33° C | 46% | 1006 hPa | 0 mm | - | 38 W/m² | - |
| 1778021159 | 23.89° C | 44% | 1006.1 hPa | 0 mm | - | 88 W/m² | - |
| 1778020857 | 23.33° C | 47% | 1006.1 hPa | 0 mm | - | 164 W/m² | - |
| 1778020554 | 22.78° C | 49% | 1006.1 hPa | 0 mm | - | 147 W/m² | - |
| 1778020250 | 22.78° C | 47% | 1006.1 hPa | 0 mm | - | 78 W/m² | - |
| 1778019946 | 22.78° C | 46% | 1006.2 hPa | 0 mm | - | 74 W/m² | - |
| 1778019642 | 22.78° C | 47% | 1006.3 hPa | 0 mm | - | 100 W/m² | - |
| 1778019340 | 22.78° C | 46% | 1006.3 hPa | 0 mm | - | 112 W/m² | - |
| 1778019036 | 22.78° C | 46% | 1006.3 hPa | 0 mm | - | 87 W/m² | - |
| 1778018733 | 23.33° C | 45% | 1006.7 hPa | 0 mm | - | 104 W/m² | - |
| 1778018431 | 23.33° C | 46% | 1006.7 hPa | 0 mm | - | 168 W/m² | - |
| 1778018129 | 22.78° C | 46% | 1006.8 hPa | 0 mm | - | 158 W/m² | - |
| 1778017827 | 22.78° C | 45% | 1006.7 hPa | 0 mm | - | 145 W/m² | - |
| 1778017525 | 22.78° C | 46% | 1007.1 hPa | 0 mm | - | 130 W/m² | - |
| 1778017221 | 22.78° C | 47% | 1007.1 hPa | 0 mm | - | 123 W/m² | - |
| 1778016919 | 23.33° C | 45% | 1007.1 hPa | 0 mm | - | 121 W/m² | - |
| 1778016615 | 23.33° C | 46% | 1007.1 hPa | 0 mm | - | 138 W/m² | - |
| 1778016311 | 23.33° C | 46% | 1006.9 hPa | 0 mm | - | 168 W/m² | - |
* Rain latest hour (hover to see other rain measurements)
** Current wind speed in m/s (hover to see current wind gust speed)